Wind_Speed
18 20 21 21 24 26 28 33 36 38 39 41 43 43 44 43 44 43 43 43 42 42 42 42 42 43 44 44 43 44 44 44 43 43 42 42 41 40 39 38 38 37 37 36
15 16 17 19 21 22 25 28 31 34 36 39 40 42 43 43 43 44 43 43 44 43 43 43 43 43 45 45 45 45 45 45 43 43 43 43 42 41 41 40 39 39 38 38
12 12 15 16 19 20 22 24 26 28 33 37 38 40 42 43 42 43 43 43 43 44 43 43 43 42 43 45 45 46 46 46 44 43 44 43 43 42 42 41 41 40 40 39
9 10 12 15 17 19 20 21 23 26 29 32 35 37 39 41 41 43 43 43 43 44 45 44 44 44 44 44 44 46 46 46 46 45 44 44 44 43 42 42 41 41 41 40
10 9 11 13 15 17 19 19 20 22 26 28 31 35 37 39 40 41 42 42 42 43 44 44 44 45 45 46 46 46 47 47 47 46 45 44 44 44 43 43 43 42 42 41
11 10 11 12 14 16 16 19 19 20 22 25 28 31 35 36 37 38 40 41 42 43 43 43 45 46 47 47 47 47 47 47 46 46 46 46 45 45 44 44 44 43 42 42
10 9 11 11 12 15 17 18 18 17 20 23 25 29 31 32 34 36 38 40 41 43 43 42 43 45 46 48 46 46 47 47 46 46 46 47 46 46 46 45 44 43 43 43
9 9 10 11 12 13 15 18 18 17 18 19 22 26 27 28 31 34 35 36 38 41 42 42 43 44 45 47 47 47 46 47 48 47 47 46 45 45 45 44 43 42 42 42
11 10 10 11 12 14 15 17 18 19 20 21 22 25 25 26 29 32 34 35 37 39 40 42 42 43 44 45 47 47 47 47 48 47 47 47 46 45 43 42 42 41 41 41
11 11 10 12 13 15 16 17 18 19 20 21 23 24 25 25 27 30 32 34 35 37 38 39 41 43 44 44 46 48 48 47 47 48 48 48 47 46 44 43 42 41 41 41
12 12 11 11 13 15 17 19 21 22 22 23 23 24 26 28 29 30 32 33 34 36 37 38 39 42 43 44 45 46 46 46 46 47 47 47 46 46 45 44 43 43 42 42
12 12 12 12 13 14 17 19 22 23 24 25 25 24 25 27 29 31 32 33 35 36 36 37 38 40 42 43 44 45 45 46 46 45 45 46 45 46 45 45 44 43 42 41
12 12 13 13 14 16 18 19 21 23 24 25 25 24 25 27 29 30 30 31 33 35 35 37 37 38 40 42 43 43 44 45 44 45 45 45 45 44 44 43 43 43 43 42
13 14 14 15 16 17 19 20 21 22 24 25 27 28 28 28 29 29 30 31 31 33 34 35 36 37 38 39 41 42 43 44 44 44 44 44 44 43 43 43 43 43 43 42
15 15 16 17 18 18 18 20 21 23 24 26 26 28 28 29 29 30 30 32 32 33 33 34 36 36 37 38 39 41 42 42 43 43 42 42 43 42 42 41 41 41 42 42
17 17 18 18 20 21 21 20 21 23 25 26 26 25 26 29 30 29 30 31 33 33 34 35 35 35 36 37 38 39 40 41 41 41 42 42 42 42 42 42 42 42 42 42
19 19 18 18 20 22 22 22 22 23 24 25 26 26 26 26 27 28 29 30 32 33 34 35 36 36 36 36 37 38 39 40 40 41 41 42 42 43 43 42 42 43 43 42
19 20 20 20 21 22 22 23 23 24 24 25 26 26 27 27 27 28 29 30 32 33 34 35 36 36 37 37 38 38 39 41 41 42 42 42 43 43 43 43 43 43 43 43
20 21 21 21 22 24 22 22 23 24 24 25 25 26 27 28 28 28 29 30 31 32 34 35 36 36 36 37 38 39 39 39 41 41 41 42 42 42 42 43 43 43 43 43
22 22 23 23 23 23 22 22 23 25 26 26 25 26 27 28 29 28 29 31 31 31 32 34 35 35 35 36 37 37 38 39 39 40 41 42 42 42 41 41 42 43 42 42
23 24 24 24 24 23 23 22 23 25 25 25 26 27 27 28 29 29 30 31 31 31 32 32 33 34 35 35 35 36 37 38 38 39 40 40 41 41 41 40 40 41 41 41
24 24 24 25 25 23 23 23 23 24 24 25 26 27 27 29 29 30 30 31 31 31 31 32 32 32 33 34 35 35 36 37 38 38 38 39 39 40 40 40 40 39 39 40
25 25 26 26 25 25 25 24 24 24 25 25 26 27 27 28 29 30 31 31 31 31 31 31 32 32 32 33 34 34 36 37 37 37 37 38 38 38 39 39 39 39 39 39
26 27 28 27 26 26 26 26 25 25 26 26 27 26 26 27 28 29 30 30 30 30 30 30 30 31 32 32 32 32 33 35 36 36 36 36 36 36 36 37 38 38 38 38
28 28 28 27 26 26 27 27 27 27 25 25 25 25 25 26 27 28 28 28 28 29 29 29 29 29 30 31 31 32 32 32 33 34 35 35 35 36 36 36 37 37 37 37
29 29 29 27 27 27 26 26 26 26 25 24 24 24 24 25 26 26 27 27 28 28 28 28 28 28 28 28 29 30 31 31 31 32 33 34 35 36 35 35 35 35 36 36
Wind_Direction
269 257 249 242 236 236 237 235 234 234 234 236 237 237 237 237 236 235 233 232 232 232 234 235 234 234 233 233 233 233 234 236 238 239 239 240 242 243 245 248 250 251 253 255
275 260 247 238 236 238 238 236 236 236 234 235 235 237 237 236 237 236 234 233 232 233 234 235 235 235 235 235 235 235 236 237 239 239 240 240 241 242 244 248 250 253 255 257
280 266 248 241 240 240 239 239 237 238 237 236 237 238 238 237 237 237 237 236 234 234 234 234 235 234 235 236 237 237 237 238 240 239 239 240 241 243 245 247 250 252 256 257
290 272 255 247 241 242 239 235 236 240 239 237 237 240 239 239 238 238 238 238 236 236 235 235 235 236 236 237 237 237 238 239 240 240 240 241 243 243 245 247 249 252 254 257
292 280 261 253 245 244 242 236 237 241 242 240 238 240 239 240 240 239 239 239 238 237 237 236 235 236 237 239 238 237 238 238 240 240 241 242 243 244 246 248 251 253 255 258
286 283 268 259 247 246 244 239 238 244 246 244 239 241 243 242 242 241 240 239 238 238 237 237 237 238 238 239 240 239 238 238 239 241 243 242 244 244 247 249 251 253 255 258
287 280 273 265 254 247 246 241 241 248 246 247 244 244 246 246 245 243 242 241 239 239 239 238 238 239 238 238 238 239 239 239 239 241 242 244 245 246 248 248 251 253 255 258
298 284 274 268 257 246 245 239 244 252 251 249 246 247 247 246 246 244 242 242 241 241 241 241 239 240 239 239 238 240 240 239 240 241 243 244 245 246 248 248 250 253 255 258
306 295 276 268 265 254 244 243 249 257 259 257 254 252 250 248 247 246 244 243 241 241 242 242 242 241 241 241 239 239 240 241 241 242 242 243 245 246 247 248 250 252 255 258
309 296 283 271 266 258 251 249 254 256 260 261 260 259 255 253 251 247 246 244 243 243 243 244 243 242 241 241 240 239 240 241 242 243 242 244 246 247 247 248 250 252 255 257
309 297 289 277 269 262 257 253 254 257 260 262 266 263 259 257 255 251 247 245 245 244 244 244 244 243 241 241 242 242 241 242 242 242 242 244 246 247 248 249 251 253 254 256
309 302 296 285 274 266 263 257 258 261 260 263 267 265 262 259 256 253 249 247 246 246 245 245 245 245 243 242 242 243 243 243 242 242 242 244 246 249 250 251 252 253 255 257
310 306 300 290 281 273 268 261 260 262 261 264 268 268 264 260 257 253 250 248 248 248 247 247 246 245 245 244 242 242 243 242 243 242 243 244 246 249 250 252 252 254 256 257
307 302 300 294 289 283 276 270 266 264 264 266 268 268 265 263 259 257 254 251 249 249 248 248 246 247 246 244 243 243 243 243 244 244 244 245 246 247 249 250 252 254 256 258
308 301 295 293 288 285 283 277 270 266 267 269 271 267 263 263 263 260 256 253 251 250 250 249 249 248 247 246 245 244 243 243 244 245 245 247 247 247 249 250 253 255 257 259
310 305 299 295 290 287 285 283 278 272 270 272 272 269 264 266 262 261 258 255 254 254 251 249 249 248 247 246 246 246 245 245 245 245 246 246 247 249 250 252 253 256 257 260
312 308 303 297 294 291 287 285 282 277 276 274 274 272 271 268 265 262 259 257 256 255 253 251 249 248 248 247 246 245 244 245 245 245 246 247 248 251 251 251 253 255 256 259
313 309 306 302 297 295 292 286 283 280 278 277 275 273 272 271 268 264 260 259 258 256 254 252 251 250 250 250 247 246 246 246 247 247 247 248 250 252 253 253 254 255 256 258
315 312 310 308 304 299 295 289 283 282 281 279 276 273 270 270 269 265 262 262 261 258 255 253 252 251 250 250 249 248 248 248 248 248 249 249 251 251 253 254 255 256 257 259
315 313 313 312 308 306 300 292 286 284 282 280 278 274 271 269 269 267 265 264 263 260 257 254 252 250 250 251 250 250 249 249 249 248 249 250 251 252 253 254 255 256 257 259
315 314 313 312 309 306 304 297 290 286 285 281 279 276 273 271 270 269 267 266 263 260 259 257 255 253 252 252 252 251 250 251 251 250 249 249 250 252 253 254 255 256 256 257
313 313 313 311 309 307 306 299 293 291 287 285 283 280 276 273 271 270 269 267 264 261 259 258 257 256 255 253 253 252 252 252 251 251 250 250 250 251 252 253 254 253 254 256
311 312 312 311 309 306 303 300 298 295 293 290 285 282 281 277 274 271 269 268 265 263 262 260 258 257 256 255 255 254 253 252 252 251 251 251 251 252 252 252 252 254 255 256
312 312 312 311 308 305 302 299 298 298 296 292 287 283 282 280 276 272 269 266 265 264 262 260 259 258 255 255 255 255 254 253 252 251 251 251 251 251 251 251 252 254 255 256
311 313 313 310 308 304 302 300 298 297 296 295 292 289 286 282 279 276 272 267 265 264 261 260 259 258 256 255 255 255 255 255 253 252 251 250 251 251 251 252 253 253 254 255
310 312 311 309 307 305 304 302 301 299 297 296 295 295 292 287 283 281 276 270 266 264 262 260 258 256 255 254 255 255 256 255 254 253 252 251 251 250 251 252 253 253 253 255
Height
5624 5625 5626 5629 5632 5637 5641 5646 5651 5658 5664 5669 5673 5679 5685 5690 5695 5701 5707 5712 5718 5723 5728 5733 5737 5741 5745 5749 5753 5758 5762 5766 5769 5772 5775 5778 5781 5785 5788 5790 5792 5794 5796 5798
5621 5621 5623 5625 5629 5632 5636 5639 5644 5650 5656 5660 5665 5670 5676 5681 5687 5693 5699 5704 5710 5715 5720 5725 5729 5733 5737 5741 5745 5750 5754 5758 5761 5764 5767 5770 5774 5777 5780 5782 5784 5786 5788 5790
5619 5621 5621 5623 5625 5628 5631 5635 5640 5644 5648 5652 5657 5662 5667 5673 5679 5684 5690 5696 5701 5707 5712 5717 5721 5726 5730 5733 5737 5742 5746 5749 5752 5756 5759 5762 5765 5768 5771 5774 5777 5779 5781 5783
5617 5618 5619 5620 5622 5624 5628 5632 5636 5639 5642 5646 5651 5654 5660 5665 5670 5676 5682 5687 5693 5698 5703 5708 5713 5717 5721 5725 5729 5733 5737 5741 5744 5747 5751 5754 5757 5761 5763 5766 5768 5771 5772 5774
5616 5616 5617 5618 5620 5622 5625 5629 5632 5635 5638 5641 5644 5647 5653 5657 5662 5668 5674 5679 5684 5690 5695 5700 5705 5709 5712 5716 5720 5724 5728 5732 5735 5739 5742 5746 5749 5752 5755 5757 5760 5762 5764 5766
5615 5615 5615 5616 5618 5620 5622 5626 5629 5631 5632 5635 5638 5641 5645 5650 5656 5661 5666 5671 5676 5681 5686 5691 5695 5699 5703 5707 5711 5714 5718 5722 5726 5730 5733 5737 5740 5743 5746 5749 5751 5753 5756 5757
5613 5613 5613 5614 5616 5617 5619 5622 5624 5626 5627 5629 5633 5635 5640 5645 5649 5654 5658 5662 5667 5672 5677 5681 5685 5689 5693 5697 5701 5705 5709 5713 5717 5720 5724 5727 5731 5734 5737 5739 5741 5744 5747 5749
5611 5612 5612 5612 5613 5615 5616 5619 5621 5622 5623 5626 5628 5630 5635 5638 5642 5646 5650 5654 5658 5663 5667 5672 5676 5680 5683 5687 5692 5695 5699 5703 5707 5711 5714 5718 5721 5724 5727 5730 5732 5735 5738 5740
5610 5611 5610 5610 5611 5612 5613 5615 5617 5619 5620 5622 5623 5626 5630 5632 5635 5638 5642 5646 5650 5654 5658 5663 5666 5670 5674 5678 5682 5686 5689 5693 5697 5701 5705 5709 5712 5715 5718 5721 5723 5726 5728 5730
5608 5609 5609 5609 5610 5610 5612 5613 5614 5615 5616 5616 5619 5621 5624 5626 5628 5631 5635 5638 5641 5645 5649 5653 5656 5660 5664 5668 5672 5676 5680 5683 5687 5690 5694 5698 5701 5705 5708 5711 5714 5716 5719 5721
5607 5607 5607 5607 5607 5607 5609 5610 5610 5611 5612 5613 5613 5619 5619 5620 5622 5624 5627 5630 5633 5636 5640 5644 5647 5651 5655 5658 5662 5666 5669 5673 5677 5681 5684 5688 5691 5695 5698 5701 5704 5707 5709 5711
5606 5605 5604 5605 5604 5604 5605 5606 5606 5608 5608 5608 5609 5615 5613 5614 5615 5617 5620 5623 5625 5628 5632 5635 5638 5642 5645 5649 5652 5656 5660 5664 5667 5671 5674 5678 5682 5685 5688 5691 5694 5696 5699 5701
5604 5603 5602 5602 5604 5603 5602 5602 5602 5603 5603 5604 5604 5609 5606 5606 5607 5609 5612 5614 5617 5620 5623 5626 5629 5632 5635 5639 5643 5647 5650 5654 5657 5661 5664 5668 5671 5675 5678 5681 5684 5686 5688 5691
5602 5601 5600 5600 5598 5598 5598 5597 5597 5597 5597 5598 5599 5600 5601 5600 5601 5602 5604 5607 5609 5612 5615 5617 5620 5623 5626 5629 5633 5637 5640 5644 5647 5651 5654 5658 5661 5664 5668 5671 5673 5676 5678 5680
5599 5598 5597 5596 5594 5594 5593 5593 5592 5592 5591 5592 5593 5593 5593 5593 5594 5595 5597 5599 5602 5604 5607 5609 5612 5614 5617 5620 5623 5627 5630 5634 5637 5641 5644 5648 5651 5654 5657 5660 5663 5666 5668 5670
5597 5595 5593 5593 5591 5590 5589 5588 5587 5587 5586 5586 5585 5586 5586 5586 5587 5587 5589 5591 5593 5596 5598 5600 5602 5605 5608 5611 5614 5617 5621 5624 5627 5631 5634 5638 5641 5644 5647 5650 5653 5655 5657 5659
5594 5592 5590 5589 5587 5585 5585 5584 5582 5581 5581 5580 5579 5580 5579 5579 5580 5580 5581 5582 5584 5586 5589 5591 5593 5596 5598 5601 5604 5608 5611 5614 5617 5621 5624 5627 5630 5634 5637 5639 5642 5645 5647 5649
5591 5588 5585 5583 5582 5581 5582 5578 5577 5575 5575 5574 5573 5573 5572 5572 5572 5573 5573 5574 5576 5577 5579 5581 5584 5586 5589 5592 5594 5597 5600 5603 5607 5610 5614 5617 5620 5623 5626 5629 5631 5634 5636 5638
5587 5584 5581 5578 5576 5574 5575 5572 5570 5569 5569 5568 5566 5566 5565 5565 5565 5566 5566 5567 5568 5569 5570 5572 5574 5577 5579 5582 5584 5587 5590 5593 5596 5600 5603 5606 5609 5612 5615 5618 5620 5622 5625 5627
5582 5580 5577 5573 5569 5568 5569 5566 5563 5562 5562 5561 5559 5558 5558 5557 5557 5559 5558 5558 5559 5560 5561 5563 5565 5567 5569 5572 5574 5577 5580 5583 5586 5589 5592 5595 5598 5601 5604 5606 5609 5611 5613 5615
5579 5575 5572 5568 5564 5563 5562 5559 5557 5557 5556 5554 5552 5551 5550 5549 5550 5550 5549 5549 5550 5550 5552 5553 5555 5557 5559 5562 5564 5567 5570 5573 5575 5578 5581 5584 5587 5590 5593 5595 5598 5600 5602 5604
5574 5570 5567 5564 5560 5561 5556 5553 5552 5551 5548 5547 5545 5544 5542 5542 5541 5541 5540 5540 5540 5541 5542 5544 5546 5548 5550 5552 5554 5557 5559 5562 5565 5567 5570 5573 5576 5579 5581 5584 5586 5589 5591 5593
5569 5566 5562 5559 5558 5554 5550 5547 5545 5543 5541 5539 5537 5536 5534 5533 5532 5532 5532 5532 5532 5532 5533 5535 5536 5538 5540 5542 5544 5547 5549 5551 5554 5556 5559 5562 5565 5567 5570 5573 5576 5578 5580 5583
5564 5560 5556 5553 5551 5548 5543 5541 5539 5536 5534 5532 5530 5528 5526 5525 5523 5523 5523 5523 5523 5524 5524 5526 5527 5529 5531 5533 5535 5537 5539 5541 5543 5546 5549 5551 5554 5557 5559 5562 5565 5567 5570 5572
5557 5554 5550 5547 5545 5541 5538 5534 5532 5529 5527 5525 5523 5520 5518 5516 5515 5514 5514 5514 5514 5515 5515 5516 5518 5520 5522 5524 5526 5527 5529 5532 5534 5536 5538 5541 5543 5546 5549 5551 5554 5556 5559 5561
5551 5547 5544 5541 5538 5534 5532 5528 5525 5522 5520 5518 5515 5513 5510 5508 5507 5506 5505 5505 5506 5506 5507 5508 5509 5511 5513 5515 5517 5519 5520 5522 5524 5526 5528 5531 5533 5536 5538 5541 5544 5546 5549 5551